This demonstration page uses our WeatherBlox Daily Observations layout. Learn more.

Left ArrowRight Arrow

36.19886, -115.1175

Hourly Observations for February 6, 2017

Temp ( °F °C ) Dew Point ( °F °C ) Humidity (%) Winds ( mph kmh ) Pressure ( in mb ) Visibility ( mi km ) Precip ( " mm )
12:53 am 00:53 Clear 52 11.1 35 1.7 53 53 NW 5 7 29.88 1012 10 16 0.00 0.00
1:17 am 01:17 Clear 58 14.4 30 -1.1 35 35 SW 14 22 29.80 1009 10 16 0.00 0.00
1:53 am 01:53 Mostly Clear 58 14.4 30 -1.1 35 35 W 12 19 29.88 1012 10 16 0.00 0.00
2:53 am 02:53 Mostly Cloudy 58 14.4 31 -0.6 36 36 SSW 22 35 29.83 1010 10 16 0.00 0.00
3:53 am 03:53 Cloudy 57 13.9 33 0.6 41 41 S 16 26 29.84 1011 10 16 0.00 0.00
4:53 am 04:53 Mostly Clear 57 13.9 37 2.8 47 47 S 21 33 29.84 1010 10 16 0.00 0.00
5:53 am 05:53 Mostly Cloudy 57 13.9 39 3.9 51 51 S 18 30 29.83 1010 10 16 0.00 0.00
6:53 am 06:53 Mostly Cloudy 56 13.3 42 5.6 60 60 SSW 21 33 29.85 1011 10 16 0.00 0.00
7:53 am 07:53 Partly Cloudy 58 14.4 41 5 53 53 S 20 31 29.88 1012 10 16 0.00 0.00
8:53 am 08:53 Sunny 59 15 41 5 51 51 SSW 12 19 29.90 1012 10 16 0.00 0.00
9:53 am 09:53 Sunny 61 16.1 41 5 48 48 SW 12 19 29.94 1014 10 16 0.00 0.00
10:53 am 10:53 Mostly Cloudy 61 16.1 41 5 48 48 SSW 21 33 29.92 1013 10 16 0.00 0.00
11:53 am 11:53 Partly Cloudy 64 17.8 41 5 43 43 SW 20 31 29.88 1012 10 16 0.00 0.00
12:53 pm 12:53 Sunny 64 17.8 42 5.6 45 45 SW 16 26 29.85 1011 10 16 0.00 0.00
1:53 pm 13:53 Sunny 63 17.2 42 5.6 47 47 SSW 18 30 29.81 1009 10 16 0.00 0.00
2:53 pm 14:53 Sunny 63 17.2 42 5.6 47 47 SW 29 46 29.81 1010 10 16 0.00 0.00
3:53 pm 15:53 Sunny 64 17.8 39 3.9 40 40 SW 26 43 29.83 1010 10 16 0.00 0.00
4:53 pm 16:53 Sunny 62 16.7 39 3.9 43 43 SW 22 35 29.84 1011 10 16 0.00 0.00
5:53 pm 17:53 Clear 61 16.1 39 3.9 44 44 SSW 15 24 29.87 1011 10 16 0.00 0.00
6:53 pm 18:53 Clear 61 16.1 40 4.4 46 46 SSW 16 26 29.88 1012 10 16 0.00 0.00
7:53 pm 19:53 Clear 61 16.1 40 4.4 46 46 SSW 15 24 29.88 1012 10 16 0.00 0.00
8:53 pm 20:53 Clear 60 15.6 40 4.4 47 47 SSW 14 22 29.89 1012 10 16 0.00 0.00
9:53 pm 21:53 Clear 58 14.4 39 3.9 50 50 SSW 17 28 29.90 1013 10 16 0.00 0.00
10:53 pm 22:53 Clear 57 13.9 38 3.3 49 49 SSW 12 19 29.92 1013 10 16 0.00 0.00
11:53 pm 23:53 Clear 57 13.9 38 3.3 49 49 S 15 24 29.91 1013 10 16 0.00 0.00

Powered by AerisWeather